AIC3WT VOCI-VABB

Flight info

Callsign AIC3WT
Flight time 1h 31m
Altitude 36000
Route CLC1B CLC M300 MOLRU Q12 KABSO/N0446F370 Q12 BBB
Aircraft A320/M-SDE3FGHIRWY/LB1

Departure

Time 2026-05-05 16:51
Airport Cochin International Airport (VOCI)

Arrival

Time 2026-05-05 18:23
Airport Chhatrapati Shivaji Maharaj International Airport (VABB)
Time Latitude Longitude Altitude Speed Heading
2026-05-05 16:22 10.15667 76.39514 39 ft 0 kts 358°
2026-05-05 16:38 10.15653 76.39514 36 ft 3 kts 358°
2026-05-05 16:39 10.15636 76.39515 35 ft 3 kts 358°
2026-05-05 16:39 10.15618 76.39516 37 ft 3 kts 358°
2026-05-05 16:39 10.15601 76.39516 36 ft 2 kts 358°
2026-05-05 16:39 10.15583 76.39517 37 ft 3 kts
2026-05-05 16:40 10.15566 76.39512 37 ft 3 kts 41°
2026-05-05 16:40 10.15555 76.39498 34 ft 2 kts 78°
2026-05-05 16:40 10.15555 76.39497 35 ft 0 kts 81°
2026-05-05 16:42 10.15555 76.39498 34 ft 0 kts 81°
2026-05-05 16:43 10.15556 76.39504 34 ft 2 kts 80°
2026-05-05 16:43 10.15558 76.39524 35 ft 4 kts 85°
2026-05-05 16:43 10.15559 76.39556 39 ft 6 kts 88°
2026-05-05 16:44 10.15561 76.39601 39 ft 7 kts 88°
2026-05-05 16:44 10.15563 76.39657 39 ft 9 kts 88°
2026-05-05 16:44 10.15564 76.39701 39 ft 6 kts 95°
2026-05-05 16:44 10.15534 76.39736 38 ft 7 kts 156°
2026-05-05 16:45 10.15475 76.39739 39 ft 9 kts 179°
2026-05-05 16:45 10.15402 76.39741 39 ft 11 kts 178°
2026-05-05 16:45 10.15318 76.39744 39 ft 8 kts 178°
2026-05-05 16:45 10.15276 76.39712 39 ft 9 kts 250°
2026-05-05 16:46 10.15272 76.39644 39 ft 10 kts 268°
2026-05-05 16:46 10.15270 76.39595 39 ft 11 kts 268°
2026-05-05 16:46 10.15267 76.39517 39 ft 12 kts 268°
2026-05-05 16:46 10.15264 76.39429 39 ft 14 kts 268°
2026-05-05 16:47 10.15260 76.39325 38 ft 16 kts 268°
2026-05-05 16:47 10.15255 76.39205 38 ft 18 kts 268°
2026-05-05 16:47 10.15251 76.39071 38 ft 20 kts 267°
2026-05-05 16:47 10.15246 76.38922 38 ft 22 kts 268°
2026-05-05 16:48 10.15239 76.38764 38 ft 20 kts 268°
2026-05-05 16:48 10.15234 76.38647 38 ft 10 kts 267°
2026-05-05 16:48 10.15232 76.38586 38 ft 9 kts 268°
2026-05-05 16:48 10.15223 76.38525 38 ft 10 kts 247°
2026-05-05 16:49 10.15162 76.38506 38 ft 11 kts 177°
2026-05-05 16:49 10.15090 76.38509 38 ft 9 kts 178°
2026-05-05 16:49 10.15060 76.38518 37 ft 3 kts 114°
2026-05-05 16:49 10.15058 76.38541 38 ft 4 kts 92°
2026-05-05 16:50 10.15058 76.38566 38 ft 4 kts 88°
2026-05-05 16:50 10.15059 76.38604 38 ft 21 kts 87°
2026-05-05 16:50 10.15073 76.38994 38 ft 88 kts 88°
2026-05-05 16:50 10.15103 76.39801 39 ft 139 kts 88°
2026-05-05 16:51 10.15145 76.40920 61 ft 176 kts 87°
2026-05-05 16:51 10.15191 76.42125 764 ft 167 kts 88°
2026-05-05 16:51 10.15239 76.43322 1311 ft 168 kts 84°
2026-05-05 16:51 10.15436 76.44471 1802 ft 168 kts 71°
2026-05-05 16:52 10.16062 76.45497 2068 ft 182 kts 31°
2026-05-05 16:52 10.17338 76.45837 2300 ft 200 kts
2026-05-05 16:52 10.18784 76.45814 2650 ft 217 kts 355°
2026-05-05 16:52 10.20301 76.45728 3351 ft 220 kts 355°
2026-05-05 16:53 10.21839 76.45647 4064 ft 223 kts 356°
2026-05-05 16:53 10.23398 76.45586 4763 ft 226 kts 357°
2026-05-05 16:53 10.24981 76.45546 5461 ft 229 kts 358°
2026-05-05 16:53 10.26584 76.45523 6191 ft 231 kts 359°
2026-05-05 16:54 10.28202 76.45511 6854 ft 233 kts
2026-05-05 16:54 10.29812 76.45504 7521 ft 235 kts
2026-05-05 16:54 10.31458 76.45500 8206 ft 237 kts
2026-05-05 16:54 10.33129 76.45406 8908 ft 241 kts 347°
2026-05-05 16:55 10.34620 76.44622 9560 ft 247 kts 319°
2026-05-05 16:55 10.35614 76.43109 9799 ft 274 kts 289°
2026-05-05 16:55 10.36093 76.41159 10059 ft 295 kts 284°
2026-05-05 16:55 10.36561 76.39097 10319 ft 314 kts 284°
2026-05-05 16:56 10.37068 76.36856 10467 ft 336 kts 284°
2026-05-05 16:56 10.37601 76.34509 10896 ft 345 kts 284°
2026-05-05 16:56 10.38149 76.32121 11483 ft 349 kts 284°
2026-05-05 16:56 10.38709 76.29711 12095 ft 352 kts 284°
2026-05-05 16:57 10.39276 76.27279 12705 ft 355 kts 284°
2026-05-05 16:57 10.39853 76.24838 13303 ft 357 kts 285°
2026-05-05 16:57 10.40762 76.22489 13851 ft 359 kts 300°
2026-05-05 16:57 10.42227 76.20420 14356 ft 361 kts 314°
2026-05-05 16:58 10.44152 76.18781 14859 ft 363 kts 328°
2026-05-05 16:58 10.46429 76.17656 15359 ft 366 kts 339°
2026-05-05 16:58 10.48820 76.16736 15848 ft 369 kts 339°
2026-05-05 16:58 10.51228 76.15808 16351 ft 372 kts 339°
2026-05-05 16:59 10.53663 76.14868 16842 ft 375 kts 339°
2026-05-05 16:59 10.56106 76.13924 17314 ft 379 kts 338°
2026-05-05 16:59 10.58580 76.12966 17789 ft 382 kts 338°
2026-05-05 16:59 10.61070 76.11999 18246 ft 385 kts 338°
2026-05-05 17:00 10.63583 76.11020 18659 ft 388 kts 338°
2026-05-05 17:00 10.66107 76.10037 19078 ft 390 kts 338°
2026-05-05 17:00 10.68654 76.09048 19503 ft 392 kts 338°
2026-05-05 17:00 10.71218 76.08052 19938 ft 395 kts 338°
2026-05-05 17:01 10.73786 76.07053 20359 ft 397 kts 338°
2026-05-05 17:01 10.76403 76.06111 20763 ft 400 kts 343°
2026-05-05 17:01 10.79091 76.05352 21160 ft 403 kts 343°
2026-05-05 17:01 10.81761 76.04599 21568 ft 405 kts 343°
2026-05-05 17:02 10.84417 76.03852 21967 ft 407 kts 343°
2026-05-05 17:02 10.87226 76.03062 22376 ft 410 kts 343°
2026-05-05 17:02 10.89981 76.02284 22758 ft 412 kts 343°
2026-05-05 17:02 10.92749 76.01503 23148 ft 415 kts 343°
2026-05-05 17:03 10.95542 76.00716 23514 ft 417 kts 343°
2026-05-05 17:03 10.98347 75.99922 23817 ft 420 kts 343°
2026-05-05 17:03 11.01174 75.99121 24120 ft 422 kts 343°
2026-05-05 17:03 11.04015 75.98318 24420 ft 425 kts 343°
2026-05-05 17:04 11.06864 75.97517 24732 ft 427 kts 344°
2026-05-05 17:04 11.09710 75.96600 25006 ft 429 kts 336°
2026-05-05 17:04 11.12363 75.95190 25291 ft 431 kts 326°
2026-05-05 17:04 11.14710 75.93299 25565 ft 432 kts 315°
2026-05-05 17:05 11.16686 75.90991 25838 ft 434 kts 305°
2026-05-05 17:05 11.18439 75.88473 26115 ft 436 kts 304°
2026-05-05 17:05 11.20204 75.85944 26388 ft 439 kts 305°
2026-05-05 17:05 11.22144 75.83555 26658 ft 441 kts 314°
2026-05-05 17:06 11.24458 75.81542 26928 ft 444 kts 324°
2026-05-05 17:06 11.27113 75.79942 27243 ft 446 kts 333°
2026-05-05 17:06 11.29961 75.78509 27536 ft 449 kts 333°
2026-05-05 17:06 11.32749 75.77094 27786 ft 451 kts 333°
2026-05-05 17:07 11.35521 75.75677 28056 ft 453 kts 333°
2026-05-05 17:07 11.38383 75.74212 28343 ft 456 kts 333°
2026-05-05 17:07 11.41168 75.72786 28610 ft 458 kts 333°
2026-05-05 17:07 11.44020 75.71326 28890 ft 460 kts 333°
2026-05-05 17:08 11.46878 75.69864 29175 ft 462 kts 333°
2026-05-05 17:08 11.49758 75.68393 29455 ft 464 kts 333°
2026-05-05 17:08 11.52647 75.66919 29737 ft 466 kts 333°
2026-05-05 17:08 11.55538 75.65446 30002 ft 468 kts 333°
2026-05-05 17:09 11.58454 75.63958 30231 ft 470 kts 333°
2026-05-05 17:09 11.61382 75.62461 30469 ft 472 kts 333°
2026-05-05 17:09 11.64301 75.60968 30796 ft 471 kts 333°
2026-05-05 17:09 11.67207 75.59480 31151 ft 469 kts 333°
2026-05-05 17:10 11.70103 75.57956 31508 ft 468 kts 332°
2026-05-05 17:10 11.72964 75.56393 31877 ft 468 kts 331°
2026-05-05 17:10 11.75804 75.54804 32250 ft 467 kts 331°
2026-05-05 17:10 11.78619 75.53218 32620 ft 466 kts 331°
2026-05-05 17:11 11.81470 75.51613 32983 ft 465 kts 331°
2026-05-05 17:11 11.84304 75.50030 33348 ft 464 kts 331°
2026-05-05 17:11 11.87132 75.48464 33699 ft 464 kts 332°
2026-05-05 17:11 11.89971 75.46900 34021 ft 463 kts 332°
2026-05-05 17:12 11.92798 75.45346 34325 ft 463 kts 332°
2026-05-05 17:12 11.95586 75.43810 34642 ft 462 kts 332°
2026-05-05 17:12 11.98402 75.42259 34961 ft 461 kts 332°
2026-05-05 17:12 12.01219 75.40703 35295 ft 460 kts 332°
2026-05-05 17:13 12.04023 75.39152 35651 ft 460 kts 332°
2026-05-05 17:13 12.06830 75.37597 35869 ft 460 kts 332°
2026-05-05 17:13 12.12466 75.34472 35908 ft 462 kts 332°
2026-05-05 17:14 12.18107 75.31351 35923 ft 461 kts 332°
2026-05-05 17:14 12.23729 75.28243 35916 ft 461 kts 332°
2026-05-05 17:15 12.29298 75.25159 35920 ft 460 kts 332°
2026-05-05 17:15 12.34959 75.22021 35923 ft 460 kts 332°
2026-05-05 17:16 12.40598 75.18895 35921 ft 461 kts 332°
2026-05-05 17:16 12.46229 75.15767 35921 ft 460 kts 332°
2026-05-05 17:17 12.51847 75.12646 35921 ft 461 kts 332°
2026-05-05 17:17 12.57468 75.09526 35920 ft 461 kts 332°
2026-05-05 17:18 12.63096 75.06398 35920 ft 460 kts 332°
2026-05-05 17:18 12.68720 75.03275 35924 ft 460 kts 332°
2026-05-05 17:19 12.74338 75.00149 35923 ft 460 kts 332°
2026-05-05 17:19 12.79917 74.97040 35927 ft 460 kts 332°
2026-05-05 17:20 12.85536 74.93917 35930 ft 460 kts 332°
2026-05-05 17:20 12.91146 74.90785 35932 ft 460 kts 332°
2026-05-05 17:21 12.96782 74.87692 35930 ft 459 kts 334°
2026-05-05 17:22 13.05510 74.83683 35932 ft 459 kts 337°
2026-05-05 17:22 13.11391 74.81120 35928 ft 459 kts 336°
2026-05-05 17:23 13.17229 74.78464 35925 ft 459 kts 336°
2026-05-05 17:23 13.23046 74.75759 35923 ft 459 kts 335°
2026-05-05 17:24 13.28855 74.73066 35915 ft 459 kts 336°
2026-05-05 17:24 13.34601 74.70423 35913 ft 459 kts 336°
2026-05-05 17:25 13.40505 74.67709 35911 ft 458 kts 336°
2026-05-05 17:25 13.46325 74.65034 35911 ft 458 kts 336°
2026-05-05 17:26 13.52130 74.62356 35908 ft 458 kts 335°
2026-05-05 17:26 13.57908 74.59689 35911 ft 458 kts 335°
2026-05-05 17:27 13.63721 74.56999 35911 ft 458 kts 335°
2026-05-05 17:27 13.69522 74.54315 35911 ft 458 kts 335°
2026-05-05 17:28 13.75334 74.51634 35913 ft 458 kts 335°
2026-05-05 17:28 13.81149 74.48952 35912 ft 458 kts 335°
2026-05-05 17:29 13.86957 74.46268 35919 ft 457 kts 335°
2026-05-05 17:29 13.92756 74.43581 35915 ft 457 kts 335°
2026-05-05 17:30 13.98552 74.40896 35916 ft 457 kts 335°
2026-05-05 17:30 14.04344 74.38222 35914 ft 457 kts 335°
2026-05-05 17:31 14.10133 74.35536 35911 ft 457 kts 335°
2026-05-05 17:31 14.15916 74.32848 35912 ft 456 kts 335°
2026-05-05 17:32 14.21694 74.30165 35909 ft 456 kts 335°
2026-05-05 17:32 14.27367 74.27455 35906 ft 456 kts 334°
2026-05-05 17:33 14.33106 74.24563 35907 ft 456 kts 333°
2026-05-05 17:33 14.38807 74.21688 35909 ft 456 kts 333°
2026-05-05 17:34 14.44520 74.18837 35901 ft 456 kts 334°
2026-05-05 17:34 14.50236 74.15996 35904 ft 456 kts 334°
2026-05-05 17:35 14.54987 74.13638 35904 ft 456 kts 334°
2026-05-05 17:35 14.60696 74.10798 35901 ft 456 kts 334°
2026-05-05 17:36 14.66408 74.07954 35904 ft 455 kts 334°
2026-05-05 17:36 14.72115 74.05108 35902 ft 455 kts 334°
2026-05-05 17:37 14.77826 74.02257 35904 ft 455 kts 333°
2026-05-05 17:37 14.83526 73.99404 35905 ft 455 kts 333°
2026-05-05 17:38 14.89225 73.96552 35903 ft 455 kts 333°
2026-05-05 17:38 14.94932 73.93699 35904 ft 455 kts 333°
2026-05-05 17:39 15.00632 73.90849 35901 ft 455 kts 333°
2026-05-05 17:39 15.06300 73.88016 35899 ft 455 kts 333°
2026-05-05 17:40 15.11999 73.85160 35902 ft 455 kts 333°
2026-05-05 17:40 15.17690 73.82305 35903 ft 455 kts 333°
2026-05-05 17:41 15.23390 73.79454 35906 ft 455 kts 333°
2026-05-05 17:41 15.29082 73.76599 35910 ft 455 kts 333°
2026-05-05 17:42 15.34766 73.73742 35910 ft 454 kts 333°
2026-05-05 17:42 15.40562 73.71124 35908 ft 455 kts 346°
2026-05-05 17:43 15.46832 73.70250 35902 ft 456 kts 353°
2026-05-05 17:43 15.53137 73.69528 35898 ft 456 kts 353°
2026-05-05 17:44 15.59454 73.68803 35912 ft 456 kts 353°
2026-05-05 17:44 15.65727 73.68083 35921 ft 456 kts 352°
2026-05-05 17:45 15.72074 73.67346 35927 ft 456 kts 352°
2026-05-05 17:45 15.78338 73.66605 35928 ft 456 kts 352°
2026-05-05 17:46 15.84689 73.65855 35931 ft 456 kts 352°
2026-05-05 17:46 15.90946 73.65123 35931 ft 456 kts 352°
2026-05-05 17:47 15.97255 73.64391 35929 ft 456 kts 352°
2026-05-05 17:47 16.03552 73.63655 35931 ft 455 kts 352°
2026-05-05 17:48 16.09850 73.62920 35936 ft 455 kts 353°
2026-05-05 17:48 16.16146 73.62185 35939 ft 455 kts 352°
2026-05-05 17:49 16.22440 73.61443 35939 ft 455 kts 352°
2026-05-05 17:49 16.28734 73.60701 35942 ft 455 kts 352°
2026-05-05 17:50 16.35023 73.59957 35941 ft 455 kts 352°
2026-05-05 17:50 16.41312 73.59222 35942 ft 455 kts 353°
2026-05-05 17:51 16.47603 73.58486 35944 ft 455 kts 352°
2026-05-05 17:51 16.53888 73.57746 35944 ft 455 kts 352°
2026-05-05 17:52 16.60177 73.57009 35948 ft 455 kts 352°
2026-05-05 17:52 16.66462 73.56268 35947 ft 455 kts 352°
2026-05-05 17:53 16.72710 73.55530 35945 ft 455 kts 352°
2026-05-05 17:53 16.78994 73.54789 35947 ft 455 kts 352°
2026-05-05 17:54 16.85279 73.54044 35952 ft 454 kts 352°
2026-05-05 17:54 16.91559 73.53304 35951 ft 454 kts 352°
2026-05-05 17:55 16.97839 73.52567 35953 ft 454 kts 352°
2026-05-05 17:55 17.04122 73.51815 35951 ft 454 kts 352°
2026-05-05 17:56 17.10396 73.51074 35954 ft 454 kts 352°
2026-05-05 17:56 17.16679 73.50335 35933 ft 453 kts 352°
2026-05-05 17:56 17.19800 73.49966 35501 ft 451 kts 352°
2026-05-05 17:57 17.22923 73.49595 34930 ft 451 kts 352°
2026-05-05 17:57 17.26044 73.49226 34440 ft 450 kts 352°
2026-05-05 17:57 17.29141 73.48862 34034 ft 446 kts 352°
2026-05-05 17:57 17.32217 73.48500 33585 ft 443 kts 352°
2026-05-05 17:58 17.35267 73.48137 33140 ft 440 kts 352°
2026-05-05 17:58 17.38295 73.47771 32700 ft 436 kts 352°
2026-05-05 17:58 17.41296 73.47410 32249 ft 433 kts 352°
2026-05-05 17:58 17.44278 73.47053 31795 ft 429 kts 352°
2026-05-05 17:59 17.47232 73.46706 31362 ft 426 kts 352°
2026-05-05 17:59 17.50169 73.46365 30925 ft 423 kts 352°
2026-05-05 17:59 17.53079 73.46031 30515 ft 420 kts 352°
2026-05-05 17:59 17.55942 73.45699 30103 ft 417 kts 351°
2026-05-05 18:00 17.58849 73.45349 29621 ft 414 kts 351°
2026-05-05 18:00 17.61665 73.45004 29176 ft 410 kts 351°
2026-05-05 18:00 17.64486 73.44659 28730 ft 407 kts 351°
2026-05-05 18:00 17.67291 73.44318 28307 ft 404 kts 351°
2026-05-05 18:01 17.70069 73.43985 27871 ft 400 kts 351°
2026-05-05 18:01 17.72826 73.43657 27473 ft 397 kts 352°
2026-05-05 18:01 17.75558 73.43336 27076 ft 394 kts 352°
2026-05-05 18:01 17.78269 73.43020 26688 ft 391 kts 352°
2026-05-05 18:02 17.80962 73.42700 26320 ft 388 kts 352°
2026-05-05 18:02 17.83633 73.42379 25946 ft 385 kts 352°
2026-05-05 18:02 17.86288 73.42058 25570 ft 382 kts 352°
2026-05-05 18:02 17.88912 73.41743 25196 ft 379 kts 352°
2026-05-05 18:03 17.91518 73.41435 24780 ft 374 kts 352°
2026-05-05 18:03 17.94089 73.41132 24131 ft 369 kts 352°
2026-05-05 18:03 17.96623 73.40830 23486 ft 364 kts 353°
2026-05-05 18:03 17.99126 73.40530 22714 ft 360 kts 353°
2026-05-05 18:04 18.01594 73.40231 21944 ft 356 kts 353°
2026-05-05 18:04 18.04046 73.39933 21252 ft 354 kts 353°
2026-05-05 18:04 18.06488 73.39641 20860 ft 352 kts 353°
2026-05-05 18:04 18.08910 73.39353 20466 ft 349 kts 353°
2026-05-05 18:05 18.11316 73.39066 20059 ft 347 kts 353°
2026-05-05 18:05 18.13712 73.38781 19679 ft 344 kts 353°
2026-05-05 18:05 18.16034 73.38393 19531 ft 334 kts 345°
2026-05-05 18:05 18.18192 73.37562 19240 ft 329 kts 337°
2026-05-05 18:06 18.20289 73.36620 18905 ft 327 kts 337°
2026-05-05 18:06 18.21678 73.35995 18677 ft 326 kts 336°
2026-05-05 18:06 18.24438 73.34757 18222 ft 325 kts 337°
2026-05-05 18:06 18.26515 73.33827 17825 ft 324 kts 337°
2026-05-05 18:07 18.28585 73.32903 17434 ft 323 kts 337°
2026-05-05 18:07 18.30650 73.31981 17051 ft 322 kts 337°
2026-05-05 18:07 18.32733 73.31139 16671 ft 321 kts 345°
2026-05-05 18:07 18.34889 73.30546 16297 ft 320 kts 345°
2026-05-05 18:08 18.37050 73.29965 15947 ft 319 kts 346°
2026-05-05 18:08 18.39200 73.29395 15604 ft 318 kts 346°
2026-05-05 18:08 18.41343 73.28832 15253 ft 317 kts 346°
2026-05-05 18:08 18.43483 73.28267 14904 ft 317 kts 346°
2026-05-05 18:09 18.45620 73.27702 14554 ft 317 kts 346°
2026-05-05 18:09 18.47751 73.27137 14206 ft 316 kts 346°
2026-05-05 18:09 18.49891 73.26570 13877 ft 316 kts 346°
2026-05-05 18:09 18.52022 73.26009 13525 ft 315 kts 346°
2026-05-05 18:10 18.54151 73.25449 13174 ft 314 kts 346°
2026-05-05 18:10 18.56266 73.24891 12836 ft 313 kts 346°
2026-05-05 18:10 18.58375 73.24331 12500 ft 312 kts 346°
2026-05-05 18:10 18.60466 73.23772 12106 ft 308 kts 346°
2026-05-05 18:11 18.62543 73.23216 11486 ft 307 kts 346°
2026-05-05 18:11 18.64611 73.22666 10911 ft 305 kts 346°
2026-05-05 18:11 18.66665 73.22119 10343 ft 304 kts 346°
2026-05-05 18:11 18.68708 73.21577 9779 ft 302 kts 346°
2026-05-05 18:12 18.70742 73.21037 9189 ft 300 kts 346°
2026-05-05 18:12 18.72755 73.20501 8652 ft 297 kts 345°
2026-05-05 18:12 18.74745 73.19971 8113 ft 293 kts 345°
2026-05-05 18:12 18.76717 73.19450 7576 ft 290 kts 345°
2026-05-05 18:13 18.78663 73.18934 7052 ft 287 kts 345°
2026-05-05 18:13 18.80588 73.18424 6535 ft 284 kts 344°
2026-05-05 18:13 18.82492 73.17918 6002 ft 281 kts 344°
2026-05-05 18:13 18.84372 73.17415 5477 ft 277 kts 344°
2026-05-05 18:14 18.86236 73.16914 4951 ft 275 kts 344°
2026-05-05 18:14 18.88055 73.16426 4424 ft 272 kts 344°
2026-05-05 18:14 18.89877 73.15939 3949 ft 267 kts 344°
2026-05-05 18:14 18.91636 73.15471 3822 ft 252 kts 345°
2026-05-05 18:15 18.93240 73.14922 3698 ft 233 kts 333°
2026-05-05 18:15 18.94667 73.14188 3582 ft 226 kts 333°
2026-05-05 18:15 18.96078 73.13470 3454 ft 224 kts 333°
2026-05-05 18:15 18.97485 73.12758 3339 ft 224 kts 333°
2026-05-05 18:16 18.98887 73.12045 3218 ft 223 kts 333°
2026-05-05 18:16 19.00287 73.11334 3098 ft 223 kts 333°
2026-05-05 18:16 19.01681 73.10625 2988 ft 222 kts 333°
2026-05-05 18:16 19.03064 73.09923 2894 ft 222 kts 333°
2026-05-05 18:17 19.04465 73.09212 2887 ft 223 kts 333°
2026-05-05 18:17 19.05851 73.08506 2890 ft 223 kts 333°
2026-05-05 18:17 19.07217 73.07797 2878 ft 212 kts 328°
2026-05-05 18:17 19.08298 73.06813 2887 ft 201 kts 306°
2026-05-05 18:18 19.08926 73.05574 2896 ft 183 kts 287°
2026-05-05 18:18 19.09106 73.04322 2872 ft 164 kts 269°
2026-05-05 18:18 19.09091 73.03153 2752 ft 156 kts 269°
2026-05-05 18:18 19.09076 73.02033 2590 ft 147 kts 269°
2026-05-05 18:19 19.09062 73.00963 2406 ft 144 kts 269°
2026-05-05 18:19 19.09048 72.99909 2225 ft 142 kts 269°
2026-05-05 18:19 19.09034 72.98866 2043 ft 142 kts 269°
2026-05-05 18:19 19.09020 72.97827 1862 ft 141 kts 269°
2026-05-05 18:20 19.09007 72.96804 1684 ft 141 kts 269°
2026-05-05 18:20 19.08997 72.96104 1561 ft 141 kts 269°
2026-05-05 18:20 19.08979 72.94730 1322 ft 141 kts 269°
2026-05-05 18:20 19.08965 72.93694 1139 ft 141 kts 269°
2026-05-05 18:21 19.08951 72.92658 960 ft 141 kts 269°
2026-05-05 18:21 19.08937 72.91628 796 ft 140 kts 269°
2026-05-05 18:21 19.08924 72.90605 619 ft 139 kts 270°
2026-05-05 18:21 19.08911 72.89586 467 ft 138 kts 270°
2026-05-05 18:22 19.08896 72.88574 272 ft 137 kts 270°
2026-05-05 18:22 19.08880 72.87568 72 ft 135 kts 270°
2026-05-05 18:22 19.08874 72.86963 51 ft 111 kts 269°
2026-05-05 18:22 19.08865 72.86329 48 ft 61 kts 269°
2026-05-05 18:23 19.08867 72.86058 47 ft 29 kts 278°
2026-05-05 18:23 19.08913 72.85904 48 ft 15 kts 299°
2026-05-05 18:23 19.08970 72.85817 49 ft 11 kts 331°
2026-05-05 18:23 19.09029 72.85854 49 ft 12 kts 79°
2026-05-05 18:24 19.09032 72.85953 49 ft 15 kts 89°
2026-05-05 18:24 19.09034 72.86070 48 ft 17 kts 89°
2026-05-05 18:24 19.09035 72.86193 48 ft 14 kts 89°
2026-05-05 18:24 19.09036 72.86272 49 ft 11 kts 89°
2026-05-05 18:25 19.09037 72.86353 49 ft 12 kts 90°
2026-05-05 18:25 19.09037 72.86415 49 ft 13 kts 89°
2026-05-05 18:25 19.09040 72.86559 49 ft 16 kts 89°
2026-05-05 18:25 19.09043 72.86681 50 ft 18 kts 92°
2026-05-05 18:26 19.09043 72.86819 50 ft 20 kts 90°
2026-05-05 18:26 19.09045 72.86974 50 ft 22 kts 88°
2026-05-05 18:26 19.09047 72.87095 50 ft 8 kts 89°
2026-05-05 18:26 19.09048 72.87165 50 ft 11 kts 88°
2026-05-05 18:27 19.09050 72.87236 50 ft 8 kts 84°
2026-05-05 18:27 19.09104 72.87265 47 ft 10 kts 358°
2026-05-05 18:27 19.09161 72.87265 49 ft 4 kts
2026-05-05 18:27 19.09199 72.87261 49 ft 7 kts 348°
2026-05-05 18:28 19.09265 72.87231 49 ft 3 kts 336°
2026-05-05 18:28 19.09296 72.87218 49 ft 6 kts 338°
2026-05-05 18:28 19.09322 72.87207 49 ft 1 kts 338°